Location: ??????
(55.6130°N, 37.7882°E)
Time: 23:14:43
(UTC+00:00)

Envisat - Pass Details

Date: 02 July 2024
Orbit: 762 x 764 km, 98.3° (Epoch: 21 July)

Event Time Altitude Azimuth Distance (km) Brightness Sun altitude
Rises 23:02:23 0° 28° (NNE) 3,241 8.4 -9.2°
Reaches altitude 10° 23:06:35 10° 62° (ENE) 2,307 6.3 -9.0°
Maximum altitude 23:08:11 11° 81° (E) 2,209 5.8 -8.9°
Drops below altitude 10° 23:09:47 10° 99° (E) 2,302 5.7 -8.8°
Sets 23:13:56 0° 133° (SE) 3,220 6.0 -8.6°
